User: anonymous   Login
Location: Niverville
(49.6028°N, 97.0419°W)
Time: 07:59:02
(UTC-05:00)
Language:

BREEZE-M DEB (TANK) - Orbit

View from above orbital plane
View from above orbital plane
View from above satellite
View from above satellite

Ground track
Ground track

The orbit data is extracted from the following two-line orbital elements,

1 33374U 08044B   14301.25627564  .00002182  00000-0  58981-3 0  7706
2 33374 049.4209 238.1677 5458127 227.9491 309.0776 04.84588301107180
Epoch (UTC): 28 October 2014 06:09:02
Eccentricity: 0.5458127
inclination: 49.4209°
perigee height: 321 km
apogee height: 16424 km
right ascension of ascending node: 238.1677°
argument of perigee: 227.9491°
revolutions per day: 4.84588301
mean anomaly at epoch: 309.0776°
orbit number at epoch: 10718

The dashed part of the orbit path shows where the satellite is in the earth's shadow,  

DLR